Location: The Saddle
(36.8333°N, 80.3417°W)
Time: 09:22:19
(UTC-05:00)

S-56A Canister/Altair - Pass Details

Date: 11 December 2023
Orbit: 640 x 2488 km, 38.9° (Epoch: 25 February)

Event Time Altitude Azimuth Distance (km) Brightness Sun altitude
Rises 13:10:21 0° 282° (WNW) 3,138 10.7 28.7°
Reaches altitude 10° 13:12:51 10° 283° (WNW) 2,109 9.9 28.6°
Maximum altitude 13:17:29 80° 10° (N) 651 7.5 28.3°
Drops below altitude 10° 13:22:05 10° 98° (E) 2,093 9.8 28.1°
Sets 13:24:33 0° 100° (E) 3,112 10.6 27.9°
